Regional Weather Roundup
Issued by NWS Nashville, TN

Home | Current Version | Previous Version | Text Only | Print | Product List | Glossary On
Versions: 1 2 3 4 5 6 7 8 9 10 11 12 13 14 15 16 17 18 19 20 21 22 23 24 25 26 27 28 29 30 31 32 33 34 35 36 37 38 39 40 41 42 43 44 45 46 47 48 49 50
000
ASUS44 KOHX 230510
RWROHX
MIDDLE TENNESSEE HOURLY WEATHER ROUNDUP
NATIONAL WEATHER SERVICE NASHVILLE TN
1200 AM CDT WED MAY 23 2018

NOTE: "FAIR" INDICATES FEW OR NO CLOUDS BELOW 12,000 FEET WITH
NO SIGNIFICANT WEATHER AND/OR OBSTRUCTIONS TO VISIBILITY.

* THESE REPORTS ARE NOT UNDER NWS QUALITY CONTROL AND MAY NOT
  REPORT WEATHER SUCH AS PRECIPITATION AND FOG.


TNZ005>011-023>034-057-059-062>066-078-080-230600
...NORTHERN MIDDLE TENNESSEE...

CITY           SKY/WX    TMP DP  RH WIND       PRES   REMARKS
CLARKSVILLE      N/A     68  65  90 SE3       30.05S
CROSSVILLE       N/A     64  63  96 CALM      30.12F
GALLATIN       FOG       70  70 100 CALM      30.09R VSB 0
DICKSON        CLEAR     68  66  94 W6        30.05F
LIVINGSTON     CLEAR     68  64  88 SW5       30.08S
NASHVILLE      MOCLDY    68  66  93 CALM      30.06S
PORTLAND       CLEAR     66  66 100 CALM      30.06S
SMYRNA           N/A     67  66  97 CALM      30.06F
SPARTA         CLEAR     64  64 100 CALM      30.07F
SPRINGFIELD    CLOUDY    66  66 100 CALM      30.05S
WEST NASHVILLE CLEAR     68  66  94 CALM      30.04S
$$
TNZ056-058-060-061-075>077-079-093>097-230600
...SOUTHERN MIDDLE TENNESSEE...

CITY           SKY/WX    TMP DP  RH WIND       PRES   REMARKS
COLUMBIA       PTCLDY    70  70 100 CALM      30.04F
LEWISBURG      CLEAR     68  66  94 CALM      30.05F
MCMINNVILLE    CLEAR     66  66 100 CALM      30.07F FOG
MURFREESBORO   PTCLDY    70  66  88 CALM      30.05S
PULASKI        PTCLDY    70  68  94 N5        30.05F
SHELBYVILLE    CLEAR     68  66  94 CALM      30.06F
TULLAHOMA      CLEAR     68  68 100 CALM      30.06F
WINCHESTER     CLEAR     68  68 100 CALM      30.06F
$$


...KEY TO REMARKS...
VSB - VISIBILITY IN MILES
WCI - WIND CHILL INDEX
HX  - HEAT INDEX




USA.gov is the U.S. government's official web portal to all federal, state and local government web resources and services.